Weather History for KHZY - January, 2013

Change the Weather History Date:

Friday, January 25, 2013

  Actual Average (KYNG) Record (KYNG)
Temperature  
Mean Temperature 11 °F 26 °F  
Max Temperature 16 °F 33 °F 71 °F (1950)
Min Temperature 6 °F 19 °F -15 °F (1897)
Degree Days  
Heating Degree Days 54 39  
Month to date heating degree days 981  
Since 1 July heating degree days 3387  
Cooling Degree Days 0 0  
Month to date cooling degree days 0  
Year to date cooling degree days 0  
Moisture  
Dew Point 6 °F    
Average Humidity 75    
Maximum Humidity 80    
Minimum Humidity 67    
Precipitation  
Precipitation 0.01 in 0.08 in - ()
Month to date precipitation 2.10  
Year to date precipitation 2.10  
Snow  
Snow 0.00 in 0.50 in - ()
Month to date snowfall 13.5  
Since 1 July snowfall 32.9  
Snow Depth -    
Sea Level Pressure  
Sea Level Pressure 30.22 in    
Wind  
Wind Speed 4 mph (SSE)    
Max Wind Speed 8 mph    
Max Gust Speed -    
Visibility 8 miles    
Events Snow    
T = Trace of Precipitation, MM = Missing Value Source: NWS Daily Summary

Daily Weather History Graph

Daily Weather History Graph

Search for Another Location

Airport or City:

Trip Planner

Search our weather history database for the weather conditions in past years. The results will help you decide how hot, cold, wet, or windy it might be!

Date:

Astronomy

Jan. 25, 2013 Rise Set
Actual Time 7:41 AM EST 5:29 PM EST
Civil Twilight 7:11 AM EST 5:59 PM EST
Nautical Twilight 6:37 AM EST 6:33 PM EST
Astronomical Twilight 6:04 AM EST 7:06 PM EST
Moon 4:25 PM EST (1/25) 6:19 AM EST (1/25)
Length of Visible Light 10h 48m
Length of Day
9h 48m
Waxing Gibbous, 98% of the Moon is Illuminated
Jan 25
Waxing Gibbous
Jan 26
Full
Feb 3
Last Quarter
Feb 10
New
Feb 17
First Quarter

Hourly Weather History & Observations

Time (EST) Temp. Windchill Dew Point Humidity Pressure Visibility Wind Dir Wind Speed Gust Speed Precip Events Conditions
12:53 AM 7.0 °F 0.1 °F 1.0 °F 77% 30.53 in 10.0 mi SSE 3.5 mph - 0.00 in   Scattered Clouds
1:53 AM 7.0 °F 0.1 °F 1.0 °F 77% 30.52 in 10.0 mi South 3.5 mph - N/A   Clear
2:53 AM 6.1 °F - 1.0 °F 80% 30.51 in 10.0 mi Calm Calm - N/A   Clear
3:53 AM 7.0 °F -1.7 °F 1.0 °F 77% 30.47 in 10.0 mi ESE 4.6 mph - N/A   Clear
4:53 AM 7.0 °F -3.3 °F 1.0 °F 77% 30.46 in 10.0 mi SSE 5.8 mph - N/A   Scattered Clouds
5:53 AM 8.1 °F -0.5 °F 1.9 °F 76% 30.43 in 10.0 mi SSE 4.6 mph - N/A   Overcast
6:53 AM 9.0 °F -0.9 °F 1.9 °F 73% 30.39 in 10.0 mi SE 5.8 mph - N/A   Overcast
7:53 AM 10.0 °F -0.9 °F 1.9 °F 70% 30.35 in 10.0 mi SE 6.9 mph - N/A   Overcast
8:53 AM 10.9 °F 1.4 °F 3.9 °F 73% 30.32 in 10.0 mi SE 5.8 mph - N/A   Overcast
9:53 AM 12.0 °F 0.5 °F 3.9 °F 70% 30.30 in 10.0 mi SSE 8.1 mph - N/A   Overcast
10:53 AM 14.0 °F 5.1 °F 5.0 °F 67% 30.27 in 10.0 mi SE 5.8 mph - N/A   Overcast
2:34 PM 15.8 °F 7.2 °F 8.6 °F 73% 30.07 in 3.0 mi SSE 5.8 mph - 0.00 in Snow Light Snow
2:44 PM 15.8 °F 5.1 °F 8.6 °F 73% 30.06 in 4.0 mi South 8.1 mph - 0.00 in   Haze
2:53 PM 16.0 °F 7.4 °F 8.1 °F 71% 30.12 in 5.0 mi SSE 5.8 mph - 0.00 in   Haze
3:53 PM 16.0 °F 7.4 °F 8.1 °F 71% 30.09 in 8.0 mi SSE 5.8 mph - 0.00 in   Overcast
4:53 PM 16.0 °F 10.4 °F 7.0 °F 68% 30.08 in 10.0 mi SE 3.5 mph - N/A   Overcast
5:53 PM 15.1 °F 9.4 °F 7.0 °F 70% 30.08 in 8.0 mi SSE 3.5 mph - 0.00 in Snow Light Snow
6:53 PM 15.1 °F - 8.1 °F 74% 30.09 in 10.0 mi Calm Calm - 0.00 in   Overcast
7:53 PM 15.1 °F - 9.0 °F 77% 30.09 in 10.0 mi Calm Calm - N/A   Overcast
8:53 PM 15.1 °F - 9.0 °F 77% 30.09 in 10.0 mi Calm Calm - 0.00 in   Overcast
9:53 PM 15.1 °F - 9.0 °F 77% 30.09 in 7.0 mi Calm Calm - 0.00 in Snow Light Snow
10:53 PM 15.1 °F 9.4 °F 10.0 °F 80% 30.11 in 4.0 mi SSW 3.5 mph - 0.01 in Snow Light Snow
11:12 PM 15.8 °F 10.2 °F 10.4 °F 79% 30.06 in 2.5 mi SSW 3.5 mph - 0.00 in Snow Light Snow
11:20 PM 15.8 °F 8.6 °F 10.4 °F 79% 30.06 in 1.2 mi SSW 4.6 mph - 0.00 in Snow Light Snow
11:41 PM 15.8 °F 8.6 °F 10.4 °F 79% 30.06 in 2.0 mi SSW 4.6 mph - 0.00 in Snow Light Snow
11:53 PM 16.0 °F 8.8 °F 10.0 °F 77% 30.11 in 2.0 mi SSW 4.6 mph - 0.00 in Snow Light Snow